"Period start","avg(HW err(1)/warn(2) (#))","avg(Visibility (m))","avg(Weather code (#))","avg(Precip intensity (mm/h))","min(HW err(1)/warn(2) (#))","max(HW err(1)/warn(2) (#))","std(HW err(1)/warn(2) (#))","med(HW err(1)/warn(2) (#))","min(Visibility (m))","max(Visibility (m))","std(Visibility (m))","med(Visibility (m))","min(Weather code (#))","max(Weather code (#))","std(Weather code (#))","med(Weather code (#))","min(Precip intensity (mm/h))","max(Precip intensity (mm/h))","std(Precip intensity (mm/h))","med(Precip intensity (mm/h))"
2016-04-25 00:00:00,2,49327,0,0.00,2,2,0,2,46065,50000,1218,50000,0,0,0,0,0.00,0.00,0.00,0.00
2016-04-25 00:10:00,2,48339,0,0.00,2,2,0,2,44986,50000,2055,49634,0,0,0,0,0.00,0.00,0.00,0.00
2016-04-25 00:20:00,2,49547,0,0.00,2,2,0,2,46829,50000,992,50000,0,0,0,0,0.00,0.00,0.00,0.00
2016-04-25 00:30:00,2,46447,0,0.00,2,2,0,2,33719,50000,4798,48480,0,0,0,0,0.00,0.00,0.00,0.00
2016-04-25 00:40:00,2,47321,0,0.00,2,2,0,2,35065,50000,4557,50000,0,0,0,0,0.00,0.00,0.00,0.00
2016-04-25 00:50:00,2,48634,0,0.00,2,2,0,2,43001,50000,2305,50000,0,0,0,0,0.00,0.00,0.00,0.00
2016-04-25 01:00:00,2,41808,27,0.06,2,2,0,2,34009,50000,5911,41752,0,54,23,40,0.00,0.20,0.08,0.00
2016-04-25 01:10:00,2,46822,5,0.00,2,2,0,2,40197,50000,3175,47787,0,54,16,0,0.00,0.00,0.00,0.00
2016-04-25 01:20:00,2,40056,0,0.00,2,2,0,2,29125,50000,6323,40620,0,0,0,0,0.00,0.00,0.00,0.00
2016-04-25 01:30:00,2,42849,0,0.00,2,2,0,2,37695,49248,2866,42359,0,0,0,0,0.00,0.00,0.00,0.00
2016-04-25 01:40:00,2,49332,0,0.00,2,2,0,2,44225,50000,1712,50000,0,0,0,0,0.00,0.00,0.00,0.00
2016-04-25 01:50:00,2,47473,0,0.00,2,2,0,2,39250,50000,3638,50000,0,0,0,0,0.00,0.00,0.00,0.00
2016-04-25 02:00:00,2,47569,0,0.00,2,2,0,2,41424,50000,2852,49056,0,0,0,0,0.00,0.00,0.00,0.00
2016-04-25 02:10:00,2,48070,0,0.00,2,2,0,2,39836,50000,3092,50000,0,0,0,0,0.00,0.00,0.00,0.00
2016-04-25 02:20:00,2,48606,0,0.00,2,2,0,2,42590,50000,2318,49822,0,0,0,0,0.00,0.00,0.00,0.00
2016-04-25 02:30:00,2,31840,0,0.00,2,2,0,2,20683,44327,9617,29400,0,0,0,0,0.00,0.00,0.00,0.00
2016-04-25 02:40:00,2,35649,0,0.00,2,2,0,2,26210,46549,6920,34262,0,0,0,0,0.00,0.00,0.00,0.00
2016-04-25 02:50:00,2,47786,0,0.00,2,2,0,2,40259,50000,3088,49542,0,0,0,0,0.00,0.00,0.00,0.00
2016-04-25 03:00:00,2,41672,0,0.00,2,2,0,2,30852,50000,5490,41649,0,0,0,0,0.00,0.00,0.00,0.00
2016-04-25 03:10:00,2,42311,0,0.00,2,2,0,2,31986,50000,6284,42564,0,0,0,0,0.00,0.00,0.00,0.00
2016-04-25 03:20:00,2,39061,0,0.00,2,2,0,2,23810,46747,7058,40228,0,0,0,0,0.00,0.00,0.00,0.00
2016-04-25 03:30:00,2,34622,12,0.00,2,2,0,2,19828,43367,7085,37006,0,41,19,0,0.00,0.00,0.00,0.00
2016-04-25 03:40:00,2,40775,0,0.00,2,2,0,2,32116,47431,4957,41410,0,0,0,0,0.00,0.00,0.00,0.00
2016-04-25 03:50:00,2,46587,0,0.00,2,2,0,2,40112,50000,3662,48277,0,0,0,0,0.00,0.00,0.00,0.00
2016-04-25 04:00:00,2,46194,0,0.00,2,2,0,2,39323,50000,4492,48786,0,0,0,0,0.00,0.00,0.00,0.00
2016-04-25 04:10:00,2,38574,0,0.00,2,2,0,2,26616,50000,6619,38320,0,0,0,0,0.00,0.00,0.00,0.00
2016-04-25 04:20:00,2,42725,0,0.00,2,2,0,2,29477,50000,5808,42684,0,0,0,0,0.00,0.00,0.00,0.00
2016-04-25 04:30:00,2,42762,0,0.00,2,2,0,2,33725,50000,5177,43553,0,0,0,0,0.00,0.00,0.00,0.00
2016-04-25 04:40:00,2,26763,0,0.00,2,2,0,2,15228,41682,9880,23844,0,0,0,0,0.00,0.00,0.00,0.00
2016-04-25 04:50:00,2,27920,0,0.00,2,2,0,2,19964,41217,6136,26917,0,0,0,0,0.00,0.00,0.00,0.00
2016-04-25 05:00:00,2,36760,0,0.00,2,2,0,2,33773,44353,3101,36042,0,0,0,0,0.00,0.00,0.00,0.00
2016-04-25 05:10:00,2,36935,0,0.00,2,2,0,2,26305,45981,6058,38309,0,0,0,0,0.00,0.00,0.00,0.00
2016-04-25 05:20:00,2,23742,0,0.00,2,2,0,2,12755,30128,5964,25892,0,0,0,0,0.00,0.00,0.00,0.00
2016-04-25 05:30:00,2,4082,16,0.07,2,2,0,2,986,10919,3249,2374,0,54,19,10,0.00,0.35,0.13,0.00
2016-04-25 05:40:00,2,975,59,5.07,1,2,0,2,737,1264,166,937,54,64,5,59,2.25,9.35,2.20,4.28
2016-04-25 05:50:00,1,1066,64,2.75,1,2,0,1,1066,1066,0,1066,64,64,0,64,2.75,2.75,0.00,2.75
2016-04-25 06:00:00,1,,,,1,1,0,1,,,,,,,,,,,,
2016-04-25 06:10:00,1,,,,1,1,0,1,,,,,,,,,,,,
2016-04-25 06:20:00,1,,,,1,1,0,1,,,,,,,,,,,,
2016-04-25 06:30:00,1,,,,1,1,0,1,,,,,,,,,,,,
2016-04-25 06:40:00,1,,,,1,1,0,1,,,,,,,,,,,,
2016-04-25 06:50:00,1,,,,1,1,0,1,,,,,,,,,,,,
2016-04-25 07:00:00,1,,,,1,1,0,1,,,,,,,,,,,,
2016-04-25 07:10:00,1,,,,1,1,0,1,,,,,,,,,,,,
2016-04-25 07:20:00,1,,,,1,1,0,1,,,,,,,,,,,,
2016-04-25 07:30:00,1,,,,1,1,0,1,,,,,,,,,,,,
2016-04-25 07:40:00,1,0,,0.00,1,2,0,1,0,0,0,0,,,,,0.00,0.00,0.00,0.00
2016-04-25 07:50:00,2,3293,10,0.00,2,2,0,2,2519,4326,693,3080,10,10,0,10,0.00,0.00,0.00,0.00
2016-04-25 08:00:00,2,2940,10,0.00,2,2,0,2,2247,3804,475,2920,10,10,0,10,0.00,0.00,0.00,0.00
2016-04-25 08:10:00,2,3678,10,0.00,2,2,0,2,2090,5431,870,3471,10,10,0,10,0.00,0.00,0.00,0.00
2016-04-25 08:20:00,2,3713,10,0.00,2,2,0,2,2758,6853,1173,3442,10,10,0,10,0.00,0.00,0.00,0.00
2016-04-25 08:30:00,2,4633,10,0.00,2,2,0,2,3050,6191,1007,4522,10,10,0,10,0.00,0.00,0.00,0.00
2016-04-25 08:40:00,2,4512,10,0.00,2,2,0,2,3421,6004,859,4376,10,10,0,10,0.00,0.00,0.00,0.00
2016-04-25 08:50:00,2,5109,10,0.00,2,2,0,2,3532,7059,1055,4942,10,10,0,10,0.00,0.00,0.00,0.00
2016-04-25 09:00:00,2,5595,10,0.00,2,2,0,2,4632,7166,749,5360,10,10,0,10,0.00,0.00,0.00,0.00
2016-04-25 09:10:00,2,5037,10,0.00,2,2,0,2,3798,6403,781,4828,10,10,0,10,0.00,0.00,0.00,0.00
2016-04-25 09:20:00,2,10397,10,0.00,2,2,0,2,8569,15998,1949,10050,10,10,0,10,0.00,0.00,0.00,0.00
2016-04-25 09:30:00,2,9035,10,0.00,2,2,0,2,6704,11625,1440,9078,10,10,0,10,0.00,0.00,0.00,0.00
2016-04-25 09:40:00,2,9078,10,0.00,2,2,0,2,6376,12440,1764,8779,10,10,0,10,0.00,0.00,0.00,0.00
2016-04-25 09:50:00,2,13484,9,0.00,2,2,0,2,9205,18206,2693,13324,0,10,3,10,0.00,0.00,0.00,0.00
2016-04-25 10:00:00,2,9504,0,0.00,2,2,0,2,7351,12478,1723,9050,0,0,0,0,0.00,0.00,0.00,0.00
2016-04-25 10:10:00,2,10544,0,0.00,2,2,0,2,7075,13407,2073,11049,0,0,0,0,0.00,0.00,0.00,0.00
2016-04-25 10:20:00,2,11642,0,0.00,2,2,0,2,9396,15599,1849,11282,0,0,0,0,0.00,0.00,0.00,0.00
2016-04-25 10:30:00,2,17216,0,0.00,2,2,0,2,14051,19972,2037,17608,0,0,0,0,0.00,0.00,0.00,0.00
2016-04-25 10:40:00,2,21377,0,0.00,2,2,0,2,17990,26594,2516,21008,0,0,0,0,0.00,0.00,0.00,0.00
2016-04-25 10:50:00,2,24210,0,0.00,2,2,0,2,20368,27000,2136,25088,0,0,0,0,0.00,0.00,0.00,0.00
2016-04-25 11:00:00,2,26271,0,0.00,2,2,0,2,23501,31686,2512,25342,0,0,0,0,0.00,0.00,0.00,0.00
2016-04-25 11:10:00,2,25990,0,0.00,2,2,0,2,22790,28796,1791,25722,0,0,0,0,0.00,0.00,0.00,0.00
2016-04-25 11:20:00,2,23504,0,0.00,2,2,0,2,21142,26258,1867,23048,0,0,0,0,0.00,0.00,0.00,0.00
2016-04-25 11:30:00,2,21830,0,0.00,2,2,0,2,18491,25247,1957,21626,0,0,0,0,0.00,0.00,0.00,0.00
2016-04-25 11:40:00,2,23819,0,0.00,2,2,0,2,20927,26751,2146,24578,0,0,0,0,0.00,0.00,0.00,0.00
2016-04-25 11:50:00,2,23531,0,0.00,2,2,0,2,19824,27455,2505,22651,0,0,0,0,0.00,0.00,0.00,0.00
2016-04-25 12:00:00,2,20148,0,0.00,2,2,0,2,14402,24688,3038,21004,0,0,0,0,0.00,0.00,0.00,0.00
2016-04-25 12:10:00,2,18819,0,0.00,2,2,0,2,14989,21386,1714,19157,0,0,0,0,0.00,0.00,0.00,0.00
2016-04-25 12:20:00,2,16308,0,0.00,2,2,0,2,12913,20429,2066,16082,0,0,0,0,0.00,0.00,0.00,0.00
2016-04-25 12:30:00,2,13740,0,0.00,2,2,0,2,9596,16817,2420,14020,0,0,0,0,0.00,0.00,0.00,0.00
2016-04-25 12:40:00,2,9750,0,0.00,2,2,0,2,7019,11633,1279,9754,0,0,0,0,0.00,0.00,0.00,0.00
2016-04-25 12:50:00,2,7159,6,0.00,2,2,0,2,5081,10905,1557,7110,0,10,5,10,0.00,0.00,0.00,0.00
2016-04-25 13:00:00,2,6769,10,0.00,2,2,0,2,5629,8189,777,6652,10,10,0,10,0.00,0.00,0.00,0.00
2016-04-25 13:10:00,2,9320,10,0.00,2,2,0,2,5451,11128,1931,10472,10,10,0,10,0.00,0.00,0.00,0.00
2016-04-25 13:20:00,2,10635,10,0.00,2,2,0,2,9536,12461,726,10496,10,10,0,10,0.00,0.00,0.00,0.00
2016-04-25 13:30:00,2,13623,7,0.00,2,2,0,2,10130,15763,1897,14190,0,10,5,10,0.00,0.00,0.00,0.00
2016-04-25 13:40:00,2,11316,0,0.00,2,2,0,2,10383,12291,586,11432,0,0,0,0,0.00,0.00,0.00,0.00
2016-04-25 13:50:00,2,16610,0,0.00,2,2,0,2,12212,23546,3565,15768,0,0,0,0,0.00,0.00,0.00,0.00
2016-04-25 14:00:00,2,13909,0,0.00,2,2,0,2,7856,21861,5333,10650,0,0,0,0,0.00,0.00,0.00,0.00
2016-04-25 14:10:00,2,8025,7,0.00,2,2,0,2,5979,12979,2106,7456,0,10,5,10,0.00,0.00,0.00,0.00
2016-04-25 14:20:00,2,17668,7,0.00,2,2,0,2,16201,19374,1004,17762,0,10,5,10,0.00,0.00,0.00,0.00
2016-04-25 14:30:00,2,8883,1,0.00,2,2,0,2,6582,13634,2044,8122,0,10,3,0,0.00,0.00,0.00,0.00
2016-04-25 14:40:00,2,3521,28,0.20,2,2,0,2,2194,6462,1397,2896,10,51,19,25,0.00,0.85,0.32,0.00
2016-04-25 14:50:00,2,3742,51,0.26,2,2,0,2,2824,5963,1050,3191,51,51,0,51,0.05,1.00,0.27,0.17
2016-04-25 15:00:00,2,9530,30,0.02,2,2,0,2,5708,14233,2779,10194,10,51,20,30,0.00,0.10,0.03,0.00
2016-04-25 15:10:00,2,15704,4,0.00,2,2,0,2,13140,17970,1444,15806,0,10,5,0,0.00,0.00,0.00,0.00
2016-04-25 15:20:00,2,13925,0,0.00,2,2,0,2,12732,15864,1069,13588,0,0,0,0,0.00,0.00,0.00,0.00
2016-04-25 15:30:00,2,12996,0,0.00,2,2,0,2,12358,13799,375,12900,0,0,0,0,0.00,0.00,0.00,0.00
2016-04-25 15:40:00,2,15206,0,0.00,2,2,0,2,13665,16410,764,15180,0,0,0,0,0.00,0.00,0.00,0.00
2016-04-25 15:50:00,2,14303,0,0.00,2,2,0,2,13349,15852,722,14328,0,0,0,0,0.00,0.00,0.00,0.00
2016-04-25 16:00:00,2,13517,0,0.00,2,2,0,2,12769,14453,427,13546,0,0,0,0,0.00,0.00,0.00,0.00
2016-04-25 16:10:00,2,13152,0,0.00,2,2,0,2,12366,13735,408,13208,0,0,0,0,0.00,0.00,0.00,0.00
2016-04-25 16:20:00,2,13176,0,0.00,2,2,0,2,11801,14255,600,13294,0,0,0,0,0.00,0.00,0.00,0.00
2016-04-25 16:30:00,2,12608,0,0.00,2,2,0,2,11796,13385,565,12582,0,0,0,0,0.00,0.00,0.00,0.00
2016-04-25 16:40:00,2,10877,30,0.87,2,2,0,2,8749,12856,1630,10168,0,61,26,40,0.00,3.35,1.12,0.48
2016-04-25 16:50:00,2,8814,58,1.31,2,2,0,2,8319,9555,422,8652,51,61,4,61,0.30,3.60,0.97,0.90
2016-04-25 17:00:00,2,9826,61,0.83,2,2,0,2,9039,11059,689,9537,61,61,0,61,0.05,2.60,0.96,0.30
2016-04-25 17:10:00,2,12480,24,0.03,2,2,0,2,10425,13567,985,12870,0,61,30,0,0.00,0.20,0.06,0.00
2016-04-25 17:20:00,2,13797,30,0.03,2,2,0,2,12941,15271,640,13936,0,61,30,26,0.00,0.10,0.04,0.00
2016-04-25 17:30:00,2,13172,51,0.06,2,2,0,2,11070,14031,908,13542,51,51,0,51,0.00,0.25,0.07,0.05
2016-04-25 17:40:00,2,13279,51,0.08,2,2,0,2,11544,15197,1157,13431,51,51,0,51,0.00,0.15,0.05,0.10
2016-04-25 17:50:00,2,13872,51,0.12,2,2,0,2,12269,14993,792,13943,51,51,0,51,0.00,0.35,0.12,0.08
2016-04-25 18:00:00,2,14557,51,0.20,2,2,0,2,13262,16407,925,14648,51,51,0,51,0.00,0.40,0.12,0.20
2016-04-25 18:10:00,2,16968,31,0.03,2,2,0,2,14775,19299,1323,16808,0,51,25,51,0.00,0.10,0.04,0.00
2016-04-25 18:20:00,2,19622,0,0.00,2,2,0,2,17436,22002,1632,19652,0,0,0,0,0.00,0.00,0.00,0.00
2016-04-25 18:30:00,2,21051,0,0.00,2,2,0,2,17724,24686,2297,21384,0,0,0,0,0.00,0.00,0.00,0.00
2016-04-25 18:40:00,2,22049,0,0.00,2,2,0,2,20043,25018,1633,21885,0,0,0,0,0.00,0.00,0.00,0.00
2016-04-25 18:50:00,2,23306,0,0.00,2,2,0,2,20153,28276,2375,23616,0,0,0,0,0.00,0.00,0.00,0.00
2016-04-25 19:00:00,2,24105,0,0.00,2,2,0,2,22892,27249,1273,23741,0,0,0,0,0.00,0.00,0.00,0.00
2016-04-25 19:10:00,2,24643,0,0.00,2,2,0,2,21904,29782,2311,23830,0,0,0,0,0.00,0.00,0.00,0.00
2016-04-25 19:20:00,2,26116,0,0.00,2,2,0,2,24039,28277,1471,26364,0,0,0,0,0.00,0.00,0.00,0.00
2016-04-25 19:30:00,2,24859,0,0.00,2,2,0,2,22590,29450,1774,24533,0,0,0,0,0.00,0.00,0.00,0.00
2016-04-25 19:40:00,2,23592,0,0.00,2,2,0,2,21956,25987,1275,23390,0,0,0,0,0.00,0.00,0.00,0.00
2016-04-25 19:50:00,2,24475,0,0.00,2,2,0,2,19379,28095,2257,24769,0,0,0,0,0.00,0.00,0.00,0.00
2016-04-25 20:00:00,2,28885,0,0.00,2,2,0,2,24808,32428,2402,28850,0,0,0,0,0.00,0.00,0.00,0.00
2016-04-25 20:10:00,2,29430,0,0.00,2,2,0,2,27225,32099,1441,29830,0,0,0,0,0.00,0.00,0.00,0.00
2016-04-25 20:20:00,2,26899,23,0.20,2,2,0,2,19163,34283,4626,26077,0,51,24,20,0.00,0.60,0.25,0.03
2016-04-25 20:30:00,2,23442,43,0.06,2,2,0,2,20519,27221,2152,23255,0,51,15,51,0.00,0.15,0.05,0.05
2016-04-25 20:40:00,2,29884,0,0.00,2,2,0,2,27293,37002,2874,29042,0,0,0,0,0.00,0.00,0.00,0.00
2016-04-25 20:50:00,2,30030,0,0.00,2,2,0,2,22014,36989,4318,30632,0,0,0,0,0.00,0.00,0.00,0.00
2016-04-25 21:00:00,2,29525,0,0.00,2,2,0,2,22742,35208,3681,28910,0,0,0,0,0.00,0.00,0.00,0.00
2016-04-25 21:10:00,2,31052,0,0.00,2,2,0,2,26270,36255,3301,30700,0,0,0,0,0.00,0.00,0.00,0.00
2016-04-25 21:20:00,2,31008,4,0.01,2,2,0,2,24850,35894,3502,32304,0,40,12,0,0.00,0.10,0.03,0.00
2016-04-25 21:30:00,2,29326,25,0.23,2,2,0,2,12785,39161,8392,31650,0,41,20,41,0.00,1.70,0.50,0.00
2016-04-25 21:40:00,2,19546,52,2.06,2,2,0,2,2388,28357,8339,21346,51,62,3,51,0.00,13.95,4.18,0.33
2016-04-25 21:50:00,2,20480,37,0.75,2,2,0,2,3569,41622,14079,16726,0,61,30,61,0.00,3.05,1.08,0.05
2016-04-25 22:00:00,2,41396,0,0.00,2,2,0,2,31845,46895,4184,42360,0,0,0,0,0.00,0.00,0.00,0.00
2016-04-25 22:10:00,2,34343,0,0.00,2,2,0,2,29285,38589,3252,35155,0,0,0,0,0.00,0.00,0.00,0.00
2016-04-25 22:20:00,2,23609,40,1.11,2,2,0,2,10781,31710,5851,25054,0,61,21,46,0.00,8.75,2.56,0.20
2016-04-25 22:30:00,2,7894,61,4.60,2,2,0,2,3595,15084,3306,6913,61,62,0,61,0.25,13.10,3.97,3.52
2016-04-25 22:40:00,2,22174,59,0.14,2,2,0,2,16539,29861,4291,20632,51,61,4,61,0.00,0.30,0.10,0.12
2016-04-25 22:50:00,2,26756,4,0.00,2,2,0,2,20326,32995,3820,27247,0,41,12,0,0.00,0.00,0.00,0.00
2016-04-25 23:00:00,2,23427,0,0.00,2,2,0,2,21021,26745,1730,23234,0,0,0,0,0.00,0.00,0.00,0.00
2016-04-25 23:10:00,2,24749,0,0.00,2,2,0,2,20794,29045,2944,24794,0,0,0,0,0.00,0.00,0.00,0.00
2016-04-25 23:20:00,2,21532,0,0.00,2,2,0,2,17515,26097,3019,20382,0,0,0,0,0.00,0.00,0.00,0.00
2016-04-25 23:30:00,2,17770,0,0.00,2,2,0,2,16753,21924,1424,17313,0,0,0,0,0.00,0.00,0.00,0.00
2016-04-25 23:40:00,2,21214,0,0.00,2,2,0,2,17327,27227,3895,19430,0,0,0,0,0.00,0.00,0.00,0.00
2016-04-25 23:50:00,2,19111,0,0.00,2,2,0,2,13233,31221,5396,17314,0,0,0,0,0.00,0.00,0.00,0.00
